{"data":{"norad_id":53792,"epoch":"2026-05-24T19:36:10.286208Z","epoch_age_seconds":94878,"freshness":"FRESH","line1":"1 53792U 22111V   26144.81678572  .00000288  00000+0  36189-4 0  9992","line2":"2 53792  53.2157 292.7201 0001309  99.2983 260.8158 15.08839422205174","mean_motion":15.08839422,"eccentricity":0.0001309,"inclination_deg":53.2157,"raan_deg":292.7201,"arg_perigee_deg":99.2983,"mean_anomaly_deg":260.8158,"bstar":3.6189e-5,"rev_number":20517,"period_min":95.437591237592,"perigee_km":538.83960490526,"apogee_km":540.65070645361,"semimajor_km":6917.8821556794,"source":"CELESTRAK","updated_at":"2026-05-25T13:38:17.544202Z"}}